Location: McFarlands Corners
(41.4117°N, 81.3382°W)
Time: 16:58:31
(UTC+00:00)

Transit 2A - Pass Details

Date: 22 February 2026
Orbit: 590 x 954 km, 66.7° (Epoch: 7 March)

Event Time Altitude Azimuth Distance (km) Brightness Sun altitude
Rises 01:06:31 0° 334° (NNW) 3,568 9.9 -23.1°
Reaches altitude 10° 01:09:19 10° 343° (NNW) 2,581 9.0 -23.7°
Enters shadow 01:14:13 37° 34° (NE) 1,309 6.9 -24.6°
